TimeEST,TemperatureF,Dew PointF,Humidity,Sea Level PressureIn,VisibilityMPH,Wind Direction,Wind SpeedMPH,Gust SpeedMPH,PrecipitationIn,Events,Conditions,WindDirDegrees,DateUTC
12:53 AM,34.0,18.0,52,30.23,10.0,SW,5.8,-,N/A,,Clear,220,2012-12-14 05:53:00
1:53 AM,33.1,17.1,52,30.23,10.0,SW,6.9,-,N/A,,Clear,220,2012-12-14 06:53:00
2:53 AM,33.1,18.0,54,30.24,10.0,SW,4.6,-,N/A,,Clear,220,2012-12-14 07:53:00
3:53 AM,34.0,17.1,50,30.22,10.0,Variable,5.8,-,N/A,,Clear,0,2012-12-14 08:53:00
4:53 AM,34.0,17.1,50,30.22,10.0,Variable,4.6,-,N/A,,Clear,0,2012-12-14 09:53:00
5:53 AM,34.0,18.0,52,30.23,10.0,SW,6.9,-,N/A,,Clear,230,2012-12-14 10:53:00
6:53 AM,33.1,18.0,54,30.23,10.0,SW,5.8,-,N/A,,Clear,220,2012-12-14 11:53:00
7:53 AM,32.0,18.0,56,30.23,10.0,SW,5.8,-,N/A,,Clear,230,2012-12-14 12:53:00
8:53 AM,33.1,19.0,56,30.22,10.0,SW,5.8,-,N/A,,Clear,230,2012-12-14 13:53:00
9:53 AM,36.0,21.0,55,30.24,10.0,WSW,9.2,-,N/A,,Clear,250,2012-12-14 14:53:00
10:53 AM,39.0,23.0,53,30.24,10.0,West,8.1,-,N/A,,Clear,270,2012-12-14 15:53:00
11:53 AM,41.0,24.1,51,30.22,10.0,West,6.9,-,N/A,,Clear,270,2012-12-14 16:53:00
12:53 PM,43.0,25.0,49,30.21,10.0,WNW,8.1,-,N/A,,Clear,290,2012-12-14 17:53:00
1:53 PM,45.0,26.1,48,30.20,10.0,WNW,8.1,-,N/A,,Clear,290,2012-12-14 18:53:00
2:53 PM,44.1,25.0,47,30.20,10.0,West,6.9,-,N/A,,Clear,280,2012-12-14 19:53:00
3:53 PM,43.0,25.0,49,30.21,10.0,West,4.6,-,N/A,,Clear,270,2012-12-14 20:53:00
4:53 PM,39.9,25.0,55,30.22,10.0,Calm,Calm,-,N/A,,Clear,0,2012-12-14 21:53:00
5:53 PM,37.0,24.1,59,30.24,10.0,Calm,Calm,-,N/A,,Clear,0,2012-12-14 22:53:00
6:53 PM,33.1,23.0,66,30.26,10.0,Calm,Calm,-,N/A,,Clear,0,2012-12-14 23:53:00
7:53 PM,30.9,23.0,72,30.25,10.0,Calm,Calm,-,N/A,,Clear,0,2012-12-15 00:53:00
8:53 PM,28.9,21.9,75,30.25,10.0,Calm,Calm,-,N/A,,Clear,0,2012-12-15 01:53:00
9:53 PM,30.0,23.0,75,30.26,9.0,Calm,Calm,-,N/A,,Clear,0,2012-12-15 02:53:00
10:53 PM,28.9,21.0,72,30.25,10.0,Calm,Calm,-,N/A,,Clear,0,2012-12-15 03:53:00
11:53 PM,28.9,21.9,75,30.25,10.0,Calm,Calm,-,N/A,,Clear,0,2012-12-15 04:53:00